Location: Gallinara
(44.0333°N, 8.2333°E)
Time: 17:12:29
(UTC+00:00)

ERS-2 - Pass Details

Date: 25 September 2020
Orbit: 492 x 499 km, 98.6° (Epoch: 29 October)

Event Time Altitude Azimuth Distance (km) Brightness Sun altitude
Rises 03:35:08 0° 164° (SSE) 2,577 5.7 -19.0°
Reaches altitude 10° 03:37:12 10° 164° (SSE) 1,698 4.8 -18.7°
Maximum altitude 03:40:51 88° 76° (ENE) 506 2.0 -18.1°
Drops below altitude 10° 03:44:32 10° 347° (NNW) 1,711 4.9 -17.4°
Sets 03:46:37 0° 347° (NNW) 2,599 5.8 -17.1°
